Regional Weather Roundup
Issued by NWS Grand Forks, ND

Home | Current Version | Previous Version | Graphics & Text | Print | Product List | Glossary On
Versions: 1 2 3 4 5 6 7 8 9 10 11 12 13 14 15 16 17 18 19 20 21 22 23 24 25 26 27 28 29 30 31 32 33 34 35 36 37 38 39 40 41 42 43 44 45 46 47 48 49 50
000
ASUS43 KFGF 271031
RWRFGF
PRAIRIE TO PINES  WEATHER ROUNDUP
NATIONAL WEATHER SERVICE EASTERN NORTH DAKOTA/GRAND FORKS ND
500 AM CDT FRI MAY 27 2016

 **SATELLITE DATA USED TO AUGMENT SKY COVER AT AUTOMATED STATIONS**
 *****  WEATHER ACROSS EASTERN NORTH DAKOTA  *****

CITY           SKY/WX    TMP DP  RH WIND       PRES   REMARKS
GRAND FORKS    CLEAR     52  50  93 N6        29.78S
GRAND FRKS AFB FOG       50  50 100 N3        29.78S VSB 1/2
GRAND FRKS NWS   N/A     52 N/A N/A VRB3        N/A
DEVILS LAKE    FOG       45  45 100 CALM      29.81F VSB 1/4
FARGO          CLEAR     56  53  90 SE9       29.76S
WAHPETON ARPT  MOSUNNY   55  50  82 CALM      29.79R
$$

 ***** WEATHER ACROSS CENTRAL AND WESTERN NORTH DAKOTA  *****

CITY           SKY/WX    TMP DP  RH WIND       PRES   REMARKS
BISMARCK       CLEAR     48  47  96 NW3       29.83S
MINOT          CLOUDY    56  54  93 CALM      29.83R FOG
JAMESTOWN      CLEAR     51  51 100 N14       29.77F FOG
MINOT AFB      CLOUDY    54  53  98 W2        29.82S
GARRISON         N/A     52  50  93 NW7       29.83F
WILLISTON      MOCLDY    47  45  93 CALM      29.87S
DICKINSON      CLEAR     40  39  97 NW3       29.83S
HETTINGER      CLEAR     37  35  92 SW5       29.87S
$$

 *****  OTHER AIRPORT OBSERVATIONS IN OUR AREA  *****

CITY           SKY/WX    TMP DP  RH WIND       PRES   REMARKS
WALHALLA       FAIR      48  48 100 CALM      29.79F
GRAFTON AIRPOR FAIR      52  52 100 NW5       29.80F
VALLEY CITY AR FAIR      50  50 100 N3        29.79S
CANDO          FAIR      50  50 100 NW7       29.83S
CAVALIER APRT  FAIR      50  50 100 CALM      29.79S
GWINNER        FAIR      54  54 100 SE7       29.77R
SHEYENNE NWR     N/A     50  49  96 E5        29.95S
ROLLA          CLOUDY    54  54 100 NW6       29.82S
 ***** THE ABOVE OBSERVATIONS ARE NON NWS ARE NOT QUALITY
       CONTROLLED AND MAY MIS-REPORT RAIN FOR SNOW...
$$

  *****  WEATHER ACROSS NORTHERN MINNESOTA  *****

CITY           SKY/WX    TMP DP  RH WIND       PRES   REMARKS
FLAG ISLAND    CLOUDY    54  54 100 SW3       29.80S
WARROAD        CLOUDY    54  48  82 CALM      29.80F
ROSEAU         CLOUDY    54  48  82 CALM      29.79F
HALLOCK        FOG       50  48  93 CALM      29.78F VSB 1/4
THF RVR FALLS  PTCLDY    55  52  88 CALM      29.80S
BAUDETTE       CLOUDY    52  50  93 CALM      29.81F
WASKISH        PTCLDY    57  54  88 CALM      29.81S
CROOKSTON      MOCLDY    55  55 100 CALM      29.79R
STEPHEN NDAWN    N/A     52  52 100 NE1         N/A
GREENBUSH NDAW   N/A     52  52 100 S1          N/A
$$
  *****  WEATHER ACROSS CENTRAL AND WEST MINNESOTA  *****

CITY           SKY/WX    TMP DP  RH WIND       PRES   REMARKS
FOSSTON        PTCLDY    52  52 100 CALM      29.79F
BEMIDJI        CLEAR     49  48  97 E3        29.81F
PARK RAPIDS    CLEAR     55  49  80 N3        29.81S
ELBOW LAKE     FAIR      61  53  74 NE3       29.78F
WADENA         CLEAR     50  46  87 CALM      29.80S
DETROIT LAKES  PTCLDY    55  52  88 E6        29.81S
MOORHEAD       CLEAR     55  54  94 SE8       29.77F
FERGUS FALLS   CLEAR     59  52  77 E7        29.76S
MORRIS MN      PTCLDY    55  50  82 NE7       29.75F
STAPLES        PTCLDY    52  48  87 NW8       29.81R
$$
  *****  WEATHER ELSEWHERE ACROSS MINNESOTA  *****

CITY           SKY/WX    TMP DP  RH WIND       PRES   REMARKS
DULUTH         CLOUDY    50  47  89 CALM      29.84R
INTRNTL FALLS  CLOUDY    49  47  93 CALM      29.82R
ELY            CLEAR     45  45 100 CALM      29.85S
CLOQUET        PTCLDY    46  45  93 CALM      29.84S
WHEATON        MOCLDY    57  54  88 CALM      29.79F
BRAINERD       PTCLDY    56  50  80 SE7       29.81S
HIBBING        FOG       41  41 100 CALM      29.83S VSB 1/4
ALEXANDRIA     MOCLDY    56  49  77 N3        29.80S
SAINT CLOUD    CLOUDY    61  55  81 NE5       29.77F
MINNEAPOLIS    CLOUDY    68  55  63 SE9       29.81S
$$

  *****  WEATHER ACROSS SOUTH DAKOTA  *****

CITY           SKY/WX    TMP DP  RH WIND       PRES   REMARKS
SIOUX FALLS    CLOUDY    56  54  93 CALM      29.75F
BROOKINGS      CLOUDY    57  55  93 E3        29.77F
WATERTOWN      CLOUDY    59  53  80 E6        29.78F
HURON          CLOUDY    56  55  97 E3        29.74F
SISSETON         N/A     55  53  93 NE7       29.77R
ABERDEEN       CLEAR     58  52  80 N5        29.75S
MITCHELL       CLOUDY    59  58  96 E6        29.74F
PIERRE         MOCLDY    53  50  89 NW14      29.73F
MOBRIDGE       PTCLDY    52  47  83 N6        29.76F
RAPID CITY     CLOUDY    50  44  80 NW6       29.86S
$$

  *****  SOME WEATHER IN NEARBY STATES *****

CITY           SKY/WX    TMP DP  RH WIND       PRES   REMARKS
GLASGOW MT     PTCLDY    48  46  93 NE8       29.87R
GREAT FALLS MT PTCLDY    44  41  89 S6        29.87F
CHEYENNE WY    CLOUDY    46  38  73 N16G25    29.89F
SCOTTSBLUFF NE CLOUDY    51  45  79 NW13      29.82F
OMAHA NE       CLOUDY    63  58  83 E10       29.69F
DES MOINES IA  LGT RAIN  64  59  83 N3        29.81R
DAVENPORT IA   CLOUDY    63  60  90 N6        29.81F
CHICAGO IL     MOCLDY    68  64  87 S8        29.90R
EAU CLAIRE WI  CLOUDY    58  56  93 NE6       29.83F
LA CROSSE WI   CLOUDY    65  60  84 E3        29.83R
$$

  *****  SOME NATIONAL WEATHER *****

CITY           SKY/WX    TMP DP  RH WIND       PRES   REMARKS
LA GUARDIA NY  CLOUDY    72  65  78 S6        30.06R
RALEIGH NC     MOCLDY    70  61  73 S6        30.14S
ATLANTA GA     MOCLDY    70  60  70 S6        30.10R
NEW ORLEANS LA CLOUDY    77  71  82 SE7       29.94S
OKLAHOMA CITY  CLOUDY    65  59  81 S3        29.67R
ALBUQUERQUE NM CLEAR     45  21  38 SE7       29.91F
SALT LAKE CITY PTCLDY    56  40  55 NE7       29.96R
LOS ANGELES CA PTCLDY    59  54  83 VRB3      29.96F
BOISE ID       CLEAR     53  40  61 NW7       29.93R
SEATTLE WA     CLOUDY    50  43  77 S12       30.14S
$$

*** WEATHER ACROSS MANITOBA...SASKATCHEWAN AND ONTARIO ***
                ***ONTARIO***

CITY           SKY/WX    TMP DP  RH WIND       PRES   REMARKS
GERALDTON      CLOUDY    54  54 100 SW7       29.85S FOG
THUNDER BAY    FOG       50  50 100 CALM      29.86S VSB 1/4
SIOUX LOOKOUT  PTCLDY    52  52 100 SE3       29.80R
TORONTO        CLOUDY    63  59  88 CALM      29.94R
BIG TROUT LK   CLOUDY    48  46  93 N10G20    29.85  FOG
PICKLE LAKE    NOT AVBL
DRYDEN         CLEAR     55  54  94 SW7       29.80R
KENORA         CLOUDY    55  54  94 SW6       29.80R FOG
$$
                *** MANITOBA***

CITY           SKY/WX    TMP DP  RH WIND       PRES   REMARKS
BRANDON        CLOUDY    55  54  94 NW5       29.80S
DAUPHIN        CLOUDY    52  52 100 W5        29.83R
ISLAND LAKE    CLOUDY    39  39 100 N8G20     29.96R
PILOT MOUND      N/A     54  54 100 SW5         N/A
THE PAS        CLOUDY    41  36  81 NE10G17   30.01R
THOMPSON       DRIZZLE   32  30  93 NE13      30.13R FOG     WCI  22
WINNIPEG       CLOUDY    57  57 100 W2        29.78R
LYNN LAKE      FLURRIES  32  32 100 E9        30.16R WCI  24
CHURCHILL      FLURRIES  30  28  93 NE10      30.27R WCI  21
GILLAM         CLOUDY    32  30  93 NE17G25   30.13R WCI  21
$$
                ***SASKATCHEWAN***

CITY           SKY/WX    TMP DP  RH WIND       PRES   REMARKS
ESTEVAN        MOCLDY    50  48  93 NW8       29.84F
KINDERSLEY     PTCLDY    46  43  87 S8        29.85F
LLOYDMINSTER   CLEAR     52  46  82 S12       29.83S
PRINCE ALBERT  MOCLDY    55  48  76 E10       29.90R
REGINA         PTCLDY    48  46  93 NW7       29.86F
YORKTON        CLEAR     50  46  87 N6        29.85S
N. BATTLEFORD  CLEAR     50  48  93 E9        29.87S
LA RONGE       PTCLDY    43  39  87 NE10G17   30.00R
SASKATOON      MOCLDY    54  52  94 W3        29.88S
SWIFT CURRENT  CLEAR     46  45  93 S7        29.87F
$$
NOTE: THESE ARE AUTOMATED STATIONS WITH LIMITED QUALITY CONTROL
      "FAIR" INDICATES FEW OR NO CLOUDS BELOW 12,000 FEET WITH NO
      SIGNIFICANT WEATHER AND/OR OBSTRUCTIONS TO VISIBILITY.
      SKY/WX - SKY CONDITION AND SIGNIFICANT WEATHER.
      TMP - AIR TEMPERATURE.    DP   - DEWPOINT TEMPERATURE.
      RH  - RELATIVE HUMIDITY.  PRES - PRESSURE.
      HX  - HEAT INDEX.         WCI  - WIND CHILL INDEX.
$



USA.gov is the U.S. government's official web portal to all federal, state and local government web resources and services.